BVX13ZB HKJK-FAOR

Flight info

Callsign BVX13ZB
Flight time N/A
Altitude 34000
Route EVATO1Z EVATO DCT LOSIN DCT ETMOV DCT AVETA DCT ITSOK DCT ITNOV DCT OKMAS DCT DO/N0475F330 DCT BONAP/N0470F340 UM310 EPNOM/N0463F360 UM310 VBR UM307 EPSEK UZ33 NESAG UZ7 OKPIT OKPIT1C
Aircraft A320/M-SDE3FGHIRWY/LB1

Departure

Time 2026-04-30 21:10
Airport Jomo Kenyatta International Airport (HKJK)

Arrival

Time N/A
Airport O.R. Tambo International Airport (FAOR)
Time Latitude Longitude Altitude Speed Heading
2026-04-30 20:13 -1.33007 36.92315 5297 ft 0 kts 103°
2026-04-30 20:59 -1.32996 36.92271 5315 ft 4 kts 103°
2026-04-30 20:59 -1.32992 36.92250 5320 ft 4 kts 87°
2026-04-30 21:00 -1.33021 36.92218 5317 ft 4 kts
2026-04-30 21:00 -1.33037 36.92216 5324 ft 0 kts
2026-04-30 21:02 -1.33034 36.92217 5324 ft 1 kts
2026-04-30 21:02 -1.33012 36.92219 5321 ft 5 kts
2026-04-30 21:03 -1.32980 36.92226 5324 ft 5 kts 15°
2026-04-30 21:03 -1.32932 36.92243 5324 ft 11 kts 24°
2026-04-30 21:03 -1.32856 36.92250 5322 ft 12 kts 330°
2026-04-30 21:03 -1.32794 36.92197 5322 ft 12 kts 302°
2026-04-30 21:04 -1.32799 36.92137 5323 ft 8 kts 236°
2026-04-30 21:04 -1.32831 36.92096 5317 ft 7 kts 232°
2026-04-30 21:04 -1.32903 36.91987 5331 ft 9 kts 259°
2026-04-30 21:05 -1.32897 36.91941 5332 ft 4 kts 279°
2026-04-30 21:05 -1.32891 36.91909 5333 ft 6 kts 279°
2026-04-30 21:05 -1.32885 36.91871 5334 ft 5 kts 279°
2026-04-30 21:05 -1.32879 36.91828 5339 ft 7 kts 278°
2026-04-30 21:06 -1.32874 36.91771 5336 ft 9 kts 265°
2026-04-30 21:06 -1.32846 36.91712 5340 ft 11 kts 321°
2026-04-30 21:06 -1.32836 36.91705 5335 ft 0 kts 324°
2026-04-30 21:08 -1.32830 36.91701 5336 ft 3 kts 323°
2026-04-30 21:08 -1.32809 36.91685 5340 ft 5 kts 323°
2026-04-30 21:09 -1.32775 36.91664 5337 ft 6 kts 343°
2026-04-30 21:09 -1.32713 36.91699 5336 ft 18 kts 53°
2026-04-30 21:09 -1.32522 36.91963 5323 ft 81 kts 54°
2026-04-30 21:09 -1.32073 36.92577 5320 ft 135 kts 53°
2026-04-30 21:10 -1.31418 36.93471 5309 ft 182 kts 53°
2026-04-30 21:10 -1.30671 36.94524 5902 ft 184 kts 56°
2026-04-30 21:10 -1.29965 36.95577 6722 ft 181 kts 57°
2026-04-30 21:10 -1.29287 36.96615 7346 ft 174 kts 65°
2026-04-30 21:11 -1.29137 36.97798 7521 ft 182 kts 112°
2026-04-30 21:11 -1.29991 36.98758 7621 ft 197 kts 149°
2026-04-30 21:11 -1.31443 36.99298 7424 ft 251 kts 176°
2026-04-30 21:11 -1.33207 36.98887 7825 ft 278 kts 209°
2026-04-30 21:12 -1.34680 36.97532 8326 ft 300 kts 235°
2026-04-30 21:12 -1.35714 36.95731 9277 ft 299 kts 242°
2026-04-30 21:12 -1.36635 36.93859 10217 ft 302 kts 243°
2026-04-30 21:12 -1.37655 36.91973 10732 ft 319 kts 237°
2026-04-30 21:13 -1.39114 36.90220 11002 ft 340 kts 215°
2026-04-30 21:13 -1.41229 36.89017 11188 ft 362 kts 204°
2026-04-30 21:13 -1.43573 36.87914 11509 ft 380 kts 204°
2026-04-30 21:13 -1.45997 36.86799 11976 ft 386 kts 203°
2026-04-30 21:14 -1.48441 36.85642 12437 ft 390 kts 204°
2026-04-30 21:14 -1.50891 36.84454 12924 ft 393 kts 205°
2026-04-30 21:14 -1.53363 36.83271 13415 ft 396 kts 205°
2026-04-30 21:14 -1.55860 36.82088 13897 ft 399 kts 204°
2026-04-30 21:15 -1.58377 36.80899 14346 ft 402 kts 204°
2026-04-30 21:15 -1.60912 36.79697 14769 ft 404 kts 204°
2026-04-30 21:15 -1.63460 36.78487 15218 ft 407 kts 204°
2026-04-30 21:15 -1.66025 36.77267 15668 ft 409 kts 205°
2026-04-30 21:16 -1.68602 36.76041 16120 ft 412 kts 205°
2026-04-30 21:16 -1.71194 36.74805 16567 ft 414 kts 205°
2026-04-30 21:16 -1.73805 36.73561 16983 ft 417 kts 205°
2026-04-30 21:16 -1.76434 36.72308 17416 ft 420 kts 205°
2026-04-30 21:17 -1.79079 36.71048 17847 ft 423 kts 205°
2026-04-30 21:17 -1.81742 36.69776 18269 ft 425 kts 205°
2026-04-30 21:17 -1.84419 36.68498 18649 ft 428 kts 205°
2026-04-30 21:17 -1.87107 36.67217 19012 ft 429 kts 205°
2026-04-30 21:18 -1.89816 36.65928 19362 ft 431 kts 205°
2026-04-30 21:18 -1.92534 36.64637 19691 ft 433 kts 205°
2026-04-30 21:18 -1.95263 36.63341 20021 ft 435 kts 205°
2026-04-30 21:18 -1.98004 36.62037 20341 ft 438 kts 206°
2026-04-30 21:19 -2.00762 36.60724 20663 ft 440 kts 206°
2026-04-30 21:19 -2.03529 36.59405 20974 ft 442 kts 205°
2026-04-30 21:19 -2.06311 36.58083 21267 ft 444 kts 206°
2026-04-30 21:19 -2.09104 36.56756 21571 ft 446 kts 206°
2026-04-30 21:20 -2.11946 36.55403 21854 ft 448 kts 206°
2026-04-30 21:20 -2.14767 36.54060 22104 ft 450 kts 206°
2026-04-30 21:20 -2.17591 36.52712 22395 ft 451 kts 206°
2026-04-30 21:20 -2.20390 36.51375 22642 ft 453 kts 206°
2026-04-30 21:21 -2.23240 36.50014 22893 ft 455 kts 206°
2026-04-30 21:21 -2.26105 36.48647 23128 ft 457 kts 206°
2026-04-30 21:21 -2.31866 36.45900 23588 ft 460 kts 206°
2026-04-30 21:22 -2.34768 36.44532 23776 ft 462 kts 205°
2026-04-30 21:22 -2.43707 36.40824 24453 ft 463 kts 202°
2026-04-30 21:23 -2.46705 36.39643 24731 ft 462 kts 201°
2026-04-30 21:23 -2.49692 36.38453 25017 ft 461 kts 202°
2026-04-30 21:23 -2.55624 36.36033 25579 ft 460 kts 202°
2026-04-30 21:24 -2.58578 36.34810 25856 ft 459 kts 202°
2026-04-30 21:24 -2.61522 36.33586 26155 ft 458 kts 202°
2026-04-30 21:24 -2.64461 36.32364 26441 ft 457 kts 202°
2026-04-30 21:24 -2.67405 36.31144 26754 ft 456 kts 202°
2026-04-30 21:25 -2.73267 36.28727 27361 ft 455 kts 202°
2026-04-30 21:25 -2.76189 36.27526 27685 ft 454 kts 201°
2026-04-30 21:25 -2.79107 36.26329 27984 ft 453 kts 201°
2026-04-30 21:26 -2.84943 36.23933 28607 ft 452 kts 201°
2026-04-30 21:26 -2.87846 36.22738 28962 ft 451 kts 201°
2026-04-30 21:27 -2.93640 36.20341 29694 ft 449 kts 201°
2026-04-30 21:27 -2.96524 36.19147 30066 ft 448 kts 201°
2026-04-30 21:27 -2.99407 36.17954 30383 ft 448 kts 201°
2026-04-30 21:28 -3.05163 36.15580 30946 ft 447 kts 201°
2026-04-30 21:28 -3.08041 36.14395 31211 ft 447 kts 201°
2026-04-30 21:28 -3.13868 36.12261 31786 ft 445 kts 191°
2026-04-30 21:29 -3.16918 36.11771 32067 ft 444 kts 186°
2026-04-30 21:29 -3.26115 36.10632 32925 ft 444 kts 186°
2026-04-30 21:30 -3.32245 36.09868 33477 ft 444 kts 186°
2026-04-30 21:31 -3.41453 36.08727 34099 ft 446 kts 186°
2026-04-30 21:31 -3.47689 36.07964 34112 ft 457 kts 186°
2026-04-30 21:32 -3.56262 36.06898 34114 ft 468 kts 186°
2026-04-30 21:32 -3.62727 36.06087 34110 ft 469 kts 186°
2026-04-30 21:33 -3.72401 36.04893 34096 ft 469 kts 186°
2026-04-30 21:34 -3.78875 36.04108 34098 ft 469 kts 186°
2026-04-30 21:34 -3.88584 36.02917 34096 ft 468 kts 186°
2026-04-30 21:35 -3.95054 36.02120 34095 ft 468 kts 186°
2026-04-30 21:35 -4.01525 36.01327 34095 ft 468 kts 186°
2026-04-30 21:36 -4.07990 36.00531 34103 ft 468 kts 186°
2026-04-30 21:37 -4.20941 35.98938 34107 ft 468 kts 186°
2026-04-30 21:37 -4.27409 35.98143 34107 ft 468 kts 186°
2026-04-30 21:38 -4.33876 35.97350 34106 ft 468 kts 186°
2026-04-30 21:38 -4.40337 35.96551 34108 ft 468 kts 186°
2026-04-30 21:39 -4.46805 35.95756 34113 ft 468 kts 186°
2026-04-30 21:39 -4.53265 35.94957 34114 ft 468 kts 186°
2026-04-30 21:40 -4.59728 35.94151 34118 ft 468 kts 186°
2026-04-30 21:40 -4.66153 35.93345 34120 ft 468 kts 186°
2026-04-30 21:41 -4.72622 35.92533 34122 ft 468 kts 186°
2026-04-30 21:41 -4.79085 35.91731 34125 ft 468 kts 186°
2026-04-30 21:42 -4.85551 35.90939 34130 ft 468 kts 186°
2026-04-30 21:42 -4.92009 35.90131 34128 ft 468 kts 186°
2026-04-30 21:43 -4.98470 35.89313 34122 ft 468 kts 186°
2026-04-30 21:43 -5.04930 35.88507 34120 ft 468 kts 186°
2026-04-30 21:44 -5.11388 35.87699 34120 ft 468 kts 186°
2026-04-30 21:44 -5.17852 35.86888 34119 ft 468 kts 186°
2026-04-30 21:45 -5.24312 35.86090 34113 ft 468 kts 186°
2026-04-30 21:45 -5.30767 35.85286 34102 ft 468 kts 186°
2026-04-30 21:46 -5.37233 35.84470 34096 ft 468 kts 186°
2026-04-30 21:46 -5.43699 35.83666 34094 ft 468 kts 185°
2026-04-30 21:47 -5.50176 35.82881 34098 ft 469 kts 185°
2026-04-30 21:47 -5.56648 35.82091 34085 ft 469 kts 185°
2026-04-30 21:48 -5.63123 35.81294 34088 ft 469 kts 185°
2026-04-30 21:48 -5.69596 35.80490 34084 ft 469 kts 185°
2026-04-30 21:49 -5.76076 35.79687 34089 ft 469 kts 185°
2026-04-30 21:49 -5.82560 35.78889 34088 ft 469 kts 185°
2026-04-30 21:50 -5.89039 35.78090 34090 ft 469 kts 185°
2026-04-30 21:50 -5.95519 35.77288 34084 ft 469 kts 185°
2026-04-30 21:51 -6.01995 35.76488 34083 ft 469 kts 185°
2026-04-30 21:51 -6.08475 35.75701 34081 ft 469 kts 185°
2026-04-30 21:52 -6.14966 35.75078 34085 ft 466 kts 177°
2026-04-30 21:52 -6.21294 35.76166 34083 ft 460 kts 159°
2026-04-30 21:53 -6.27347 35.78265 34074 ft 460 kts 159°
2026-04-30 21:53 -6.33409 35.80359 34070 ft 461 kts 159°
2026-04-30 21:54 -6.39484 35.82444 34073 ft 461 kts 159°
2026-04-30 21:54 -6.45556 35.84526 34074 ft 461 kts 159°
2026-04-30 21:55 -6.51629 35.86631 34075 ft 461 kts 159°
2026-04-30 21:55 -6.57701 35.88733 34074 ft 462 kts 159°
2026-04-30 21:56 -6.63780 35.90830 34074 ft 462 kts 159°
2026-04-30 21:56 -6.69864 35.92931 34071 ft 462 kts 159°
2026-04-30 21:57 -6.75950 35.95033 34074 ft 462 kts 159°
2026-04-30 21:57 -6.82033 35.97134 34073 ft 462 kts 159°
2026-04-30 21:58 -6.88108 35.99231 34073 ft 461 kts 159°
2026-04-30 21:58 -6.94143 36.01318 34070 ft 461 kts 159°
2026-04-30 21:59 -7.00208 36.03422 34069 ft 461 kts 159°
2026-04-30 22:00 -7.09308 36.06555 34071 ft 461 kts 159°
2026-04-30 22:00 -7.18392 36.09703 34078 ft 460 kts 159°
2026-04-30 22:01 -7.24447 36.11806 34086 ft 460 kts 159°
2026-04-30 22:01 -7.30507 36.13902 34086 ft 460 kts 159°
2026-04-30 22:02 -7.36560 36.16000 34093 ft 460 kts 159°
2026-04-30 22:02 -7.42610 36.18091 34091 ft 459 kts 159°
2026-04-30 22:03 -7.48616 36.20175 34106 ft 459 kts 158°
2026-04-30 22:03 -7.54657 36.22280 34110 ft 459 kts 159°
2026-04-30 22:04 -7.60697 36.24374 34117 ft 459 kts 159°
2026-04-30 22:05 -7.69759 36.27509 34096 ft 459 kts 159°
2026-04-30 22:05 -7.75805 36.29613 34095 ft 460 kts 159°
2026-04-30 22:06 -7.81862 36.31713 34100 ft 460 kts 159°
2026-04-30 22:06 -7.90948 36.34868 34096 ft 461 kts 159°
2026-04-30 22:07 -7.97015 36.36972 34076 ft 461 kts 159°
2026-04-30 22:07 -8.03086 36.39087 34078 ft 461 kts 159°
2026-04-30 22:08 -8.09156 36.41202 34062 ft 462 kts 159°
2026-04-30 22:08 -8.15233 36.43319 34064 ft 462 kts 159°
2026-04-30 22:09 -8.21313 36.45428 34045 ft 462 kts 159°
2026-04-30 22:09 -8.27388 36.47539 34040 ft 462 kts 159°
2026-04-30 22:10 -8.33469 36.49653 34046 ft 462 kts 159°
2026-04-30 22:10 -8.39545 36.51773 34047 ft 462 kts 159°
2026-04-30 22:11 -8.48669 36.54955 34044 ft 463 kts 159°
2026-04-30 22:12 -8.54758 36.57084 34049 ft 463 kts 159°
2026-04-30 22:12 -8.59823 36.58849 34051 ft 463 kts 159°
2026-04-30 22:13 -8.65927 36.60967 34063 ft 464 kts 159°
2026-04-30 22:13 -8.73020 36.63439 34064 ft 464 kts 159°
2026-04-30 22:14 -8.78132 36.65230 34070 ft 464 kts 159°
2026-04-30 22:14 -8.84236 36.67364 34069 ft 464 kts 159°
2026-04-30 22:15 -8.90340 36.69499 34073 ft 464 kts 159°
2026-04-30 22:15 -8.96438 36.71632 34075 ft 464 kts 159°
2026-04-30 22:16 -9.02541 36.73755 34077 ft 464 kts 159°
2026-04-30 22:17 -9.14734 36.78017 34062 ft 463 kts 159°
2026-04-30 22:17 -9.23873 36.81209 34067 ft 463 kts 158°
2026-04-30 22:18 -9.32964 36.84398 34064 ft 463 kts 158°
2026-04-30 22:19 -9.42093 36.87598 34062 ft 462 kts 158°
2026-04-30 22:20 -9.51219 36.90797 34057 ft 462 kts 159°
2026-04-30 22:20 -9.60337 36.93989 34057 ft 462 kts 158°
2026-04-30 22:21 -9.66410 36.96130 34052 ft 462 kts 158°
2026-04-30 22:21 -9.72482 36.98261 34055 ft 462 kts 159°
2026-04-30 22:22 -9.78546 37.00393 34055 ft 462 kts 158°
2026-04-30 22:22 -9.84619 37.02526 34057 ft 462 kts 158°
2026-04-30 22:23 -9.90688 37.04654 34058 ft 462 kts 158°
2026-04-30 22:23 -9.96768 37.06790 34059 ft 462 kts 158°
2026-04-30 22:24 -10.02842 37.08919 34069 ft 462 kts 158°
2026-04-30 22:24 -10.08916 37.11059 34071 ft 462 kts 158°
2026-04-30 22:25 -10.14986 37.13199 34072 ft 462 kts 158°
2026-04-30 22:25 -10.21059 37.15341 34073 ft 462 kts 158°
2026-04-30 22:26 -10.30167 37.18551 34071 ft 462 kts 158°
2026-04-30 22:27 -10.36233 37.20689 34070 ft 461 kts 158°
2026-04-30 22:27 -10.45326 37.23897 34075 ft 461 kts 158°
2026-04-30 22:28 -10.54422 37.27099 34064 ft 461 kts 158°
2026-04-30 22:29 -10.66555 37.31377 34060 ft 462 kts 158°
2026-04-30 22:31 -10.87782 37.38888 34061 ft 463 kts 158°
2026-04-30 22:32 -11.02982 37.44263 34057 ft 462 kts 158°
2026-04-30 22:33 -11.18176 37.49650 34050 ft 462 kts 158°
2026-04-30 22:35 -11.33378 37.55035 34048 ft 463 kts 158°
2026-04-30 22:36 -11.48583 37.60441 34043 ft 463 kts 158°
2026-04-30 22:37 -11.60845 37.64463 34038 ft 467 kts 169°
2026-04-30 22:37 -11.67354 37.64309 34036 ft 473 kts 189°
2026-04-30 22:38 -11.73668 37.62310 34042 ft 476 kts 196°
2026-04-30 22:39 -11.83100 37.59096 34040 ft 476 kts 196°
2026-04-30 22:40 -12.01976 37.52655 34051 ft 477 kts 196°
2026-04-30 22:41 -12.17715 37.47270 34048 ft 477 kts 196°
2026-04-30 22:43 -12.36624 37.40804 34050 ft 478 kts 196°
2026-04-30 22:44 -12.49225 37.36484 34051 ft 477 kts 196°
2026-04-30 22:45 -12.68100 37.30011 34045 ft 478 kts 197°
2026-04-30 22:47 -12.87069 37.23519 34052 ft 479 kts 196°
2026-04-30 22:48 -12.99799 37.19329 34054 ft 481 kts 196°
2026-04-30 22:49 -13.18930 37.12973 34073 ft 482 kts 197°
2026-04-30 22:51 -13.38102 37.06585 34085 ft 483 kts 196°
2026-04-30 22:52 -13.47689 37.03387 34094 ft 483 kts 197°
2026-04-30 22:53 -13.60483 36.99119 34097 ft 483 kts 197°
2026-04-30 22:53 -13.70065 36.95917 34108 ft 482 kts 197°
2026-04-30 22:55 -13.84965 36.90944 34100 ft 481 kts 197°
2026-04-30 22:56 -13.97701 36.86672 34095 ft 481 kts 197°
2026-04-30 22:57 -14.13658 36.81383 34091 ft 482 kts 197°
2026-04-30 22:58 -14.26453 36.77191 34091 ft 482 kts 197°
2026-04-30 22:59 -14.45617 36.70865 34097 ft 482 kts 198°